Regional Weather Roundup
Issued by NWS Grand Forks, ND

Home | Current Version | Previous Version | Graphics & Text | Print | Product List | Glossary On
Versions: 1 2 3 4 5 6 7 8 9 10 11 12 13 14 15 16 17 18 19 20 21 22 23 24 25 26 27 28 29 30 31 32 33 34 35 36 37 38 39 40 41 42 43 44 45 46 47 48 49 50
000
ASUS43 KFGF 181931
RWRFGF
PRAIRIE TO PINES  WEATHER ROUNDUP
NATIONAL WEATHER SERVICE EASTERN NORTH DAKOTA/GRAND FORKS ND
200 PM CDT FRI AUG 18 2017

 **SATELLITE DATA USED TO AUGMENT SKY COVER AT AUTOMATED STATIONS**
 *****  WEATHER ACROSS EASTERN NORTH DAKOTA  *****

CITY           SKY/WX    TMP DP  RH WIND       PRES   REMARKS
GRAND FORKS    PTSUNNY   80  59  48 NW9       29.84F
GRAND FRKS AFB FAIR      79  56  45 N8        29.86F
DEVILS LAKE    FAIR      76  57  51 NW10      29.90S
FARGO          FAIR      76  63  64 W13       29.86F
WAHPETON ARPT  FAIR      68  57  68 N5        29.88F
$$

 ***** WEATHER ACROSS CENTRAL AND WESTERN NORTH DAKOTA  *****

CITY           SKY/WX    TMP DP  RH WIND       PRES   REMARKS
BISMARCK       FAIR      79  56  45 W6        29.96F
MINOT          FAIR      81  47  30 NW14G21   29.91F
JAMESTOWN      PTSUNNY   71  59  65 N3        29.92S
MINOT AFB      FAIR      81  44  26 NW16G23   29.90F
GARRISON         N/A     79  49  34 NW14G28   29.94F
WILLISTON      FAIR      80  53  39 CALM      29.95F
DICKINSON      FAIR      80  48  32 N9        29.97F
HETTINGER      FAIR      80  47  31 N7        30.01F
$$

 *****  OTHER AIRPORT OBSERVATIONS IN OUR AREA  *****

CITY           SKY/WX    TMP DP  RH WIND       PRES   REMARKS
WALHALLA       FAIR      81  79  94 NW8G22    29.84S
GRAFTON AIRPOR FAIR      79  59  50 NW10      29.85F
VALLEY CITY AR   N/A     70  68  94 W7        29.92S
CANDO          FAIR      79  54  41 W9        29.91S
CAVALIER APRT  FAIR      79  55  44 NW6G13    29.84S
GWINNER        CLEAR     70  61  73 N6        29.90S
SHEYENNE NWR     N/A     71  62  73 S5        29.95S
ROLLA          FAIR      77  50  38 W10G17    29.91S
 ***** THE ABOVE OBSERVATIONS ARE NON NWS ARE NOT QUALITY
       CONTROLLED AND MAY MIS-REPORT RAIN FOR SNOW...
$$

  *****  WEATHER ACROSS NORTHERN MINNESOTA  *****

CITY           SKY/WX    TMP DP  RH WIND       PRES   REMARKS
FLAG ISLAND    FAIR      79  55  44 W3        29.79F
WARROAD        FAIR      75  63  64 W10       29.82F
ROSEAU         FAIR      79  57  47 W8        29.83S
HALLOCK        FAIR      82  48  30 NW13      29.82F
THF RVR FALLS  FAIR      76  54  46 NW12      29.85S
BAUDETTE       FAIR      79  55  43 N8        29.82R
WASKISH        FAIR      77  57  50 SW8       29.83F
CROOKSTON      FAIR      79  54  41 N12       29.84F
STEPHEN NDAWN    N/A     75  59  57 W6          N/A
GREENBUSH NDAW   N/A    N/A N/A N/A W6          N/A
$$
  *****  WEATHER ACROSS CENTRAL AND WEST MINNESOTA  *****

CITY           SKY/WX    TMP DP  RH WIND       PRES   REMARKS
FOSSTON        FAIR      82  55  39 N10       29.85S
BEMIDJI        FAIR      76  56  49 N6        29.85S
PARK RAPIDS    FAIR      79  61  53 SW7       29.85F THUNDER
ELBOW LAKE     FAIR      64  62  93 CALM      29.90F
WADENA         FAIR      63  57  82 SW8       29.91S
DETROIT LAKES  FAIR      72  59  64 SW8       29.89S
MOORHEAD       FAIR      73  63  68 W5        29.87F
FERGUS FALLS   PTSUNNY   68  64  88 S5        29.89R
MORRIS MN      FAIR      72  63  73 CALM      29.88F
STAPLES        PTSUNNY   64  55  72 W8        29.90R
$$
  *****  WEATHER ELSEWHERE ACROSS MINNESOTA  *****

CITY           SKY/WX    TMP DP  RH WIND       PRES   REMARKS
DULUTH         FAIR      69  61  75 W9        29.86S
INTRNTL FALLS  FAIR      77  58  51 NW7       29.81F
ELY            FAIR      70  57  64 S5        29.84S
CLOQUET        FAIR      72  59  64 W5        29.87S
WHEATON        FAIR      70  59  68 N5        29.89F
BRAINERD       FAIR      73  61  65 S9        29.88F
HIBBING        FAIR      71  59  65 VRB3      29.85S
ALEXANDRIA     CLOUDY    68  60  75 NW9       29.93S
SAINT CLOUD    FAIR      69  62  78 W7        29.90S
MINNEAPOLIS    CLOUDY    65  61  87 SW8       29.92S
$$

  *****  WEATHER ACROSS SOUTH DAKOTA  *****

CITY           SKY/WX    TMP DP  RH WIND       PRES   REMARKS
SIOUX FALLS    FAIR      78  65  63 S12       29.90F
BROOKINGS      FAIR      76  62  62 S13       29.91S
WATERTOWN      FAIR      75  61  61 S10       29.88F
HURON          FAIR      79  62  56 NW14G20   29.90S
SISSETON         N/A     67  64  90 N7        29.88S
ABERDEEN       FAIR      73  61  65 N15       29.90R
MITCHELL       FAIR      79  65  62 VRB6      29.90F
PIERRE         FAIR      81  53  37 N13G20    29.95F
MOBRIDGE       FAIR      78  59  51 N9        29.94S
RAPID CITY     FAIR      85  42  22 N14G25    30.03F
$$

  *****  SOME WEATHER IN NEARBY STATES *****

CITY           SKY/WX    TMP DP  RH WIND       PRES   REMARKS
GLASGOW MT     FAIR      83  35  18 SW5       29.92F HAZE
GREAT FALLS MT FAIR      83  31  15 SW15G25   29.99F
CHEYENNE WY    FAIR      81  39  22 CALM      30.24F
SCOTTSBLUFF NE FAIR      84  42  22 W6        30.11F
OMAHA NE       FAIR      85  60  42 NW9       29.91F
DES MOINES IA  FAIR      87  60  40 W13       29.88F
DAVENPORT IA   FAIR      79  63  57 W7        29.92F
CHICAGO IL     PTSUNNY   80  60  50 W10       29.86F
EAU CLAIRE WI  FAIR      70  63  78 W9        29.88R
LA CROSSE WI   CLOUDY    73  62  68 W7        29.88S
$$

  *****  SOME NATIONAL WEATHER *****

CITY           SKY/WX    TMP DP  RH WIND       PRES   REMARKS
LA GUARDIA NY  CLOUDY    83  77  82 VRB6      29.80F HX  92
RALEIGH NC     FAIR      94  73  50 VRB7      29.87F HX 103
ATLANTA GA     FAIR      89  69  51 W13G20    29.99F HX  93
NEW ORLEANS LA FAIR      92  75  57 N10       30.03F HX 103
OKLAHOMA CITY  FAIR      89  65  44 S6        29.99F HX  91
ALBUQUERQUE NM FAIR      87  36  16 VRB3      30.22F
SALT LAKE CITY FAIR      88  40  18 NW6       30.14F
LOS ANGELES CA FAIR      73  63  70 W10       30.01S
BOISE ID       FAIR      83  43  24 NW7       30.09F
SEATTLE WA     FAIR      66  54  65 SW8       30.19S
$$

*** WEATHER ACROSS MANITOBA...SASKATCHEWAN AND ONTARIO ***
                ***ONTARIO***

CITY           SKY/WX    TMP DP  RH WIND       PRES   REMARKS
GERALDTON      CLOUDY    61  57  88 NE8       29.76R
THUNDER BAY    PTSUNNY   72  55  56 NW7       29.77S
SIOUX LOOKOUT  PTSUNNY   77  57  50 W6        29.77F
TORONTO        CLOUDY    79  64  61 W17G25    29.69S
BIG TROUT LK   SUNNY     73  57  56 S6        29.68F
PICKLE LAKE    PTSUNNY   72  55  56 VRB2      29.72F
DRYDEN         PTSUNNY   77  50  38 W5        29.79S
KENORA         PTSUNNY   77  55  47 W7        29.80F
$$
                *** MANITOBA***

CITY           SKY/WX    TMP DP  RH WIND       PRES   REMARKS
BRANDON        MOSUNNY   79  52  38 NW16      29.86F
DAUPHIN        PTSUNNY   81  52  36 NW7       29.81F
ISLAND LAKE    PTSUNNY   77  55  47 SW6       29.70
PILOT MOUND      N/A     77  50  38 W13G20      N/A
THE PAS        MOSUNNY   79  55  44 SW10      29.74F
THOMPSON       PTSUNNY   72  54  53 W13       29.65F
WINNIPEG       MOSUNNY   81  52  36 NW16      29.80S
LYNN LAKE      MOSUNNY   73  52  46 MISG      29.67F
CHURCHILL      PTSUNNY   66  55  68 NE3       29.59S
GILLAM         PTSUNNY   72  55  56 W9        29.61S
$$
                ***SASKATCHEWAN***

CITY           SKY/WX    TMP DP  RH WIND       PRES   REMARKS
ESTEVAN        MOSUNNY   79  48  34 W7G20     29.92F
KINDERSLEY     SUNNY     79  46  31 SE9G17    29.84F
LLOYDMINSTER   MOSUNNY   72  54  53 S13       29.81F
PRINCE ALBERT  MOSUNNY   79  52  38 SW5       29.83F
REGINA         MOSUNNY   81  43  26 W12G17    29.89F
YORKTON        MOSUNNY   77  52  41 W12G18    29.86F
N. BATTLEFORD  SUNNY     77  50  38 SW6       29.85F
LA RONGE       PTSUNNY   77  52  41 SW12      29.74F
SASKATOON      MOSUNNY   79  50  36 SW10      29.87F
SWIFT CURRENT  SUNNY     82  43  24 S13G24    29.88F
$$
NOTE: THESE ARE AUTOMATED STATIONS WITH LIMITED QUALITY CONTROL
      "FAIR" INDICATES FEW OR NO CLOUDS BELOW 12,000 FEET WITH NO
      SIGNIFICANT WEATHER AND/OR OBSTRUCTIONS TO VISIBILITY.
      SKY/WX - SKY CONDITION AND SIGNIFICANT WEATHER.
      TMP - AIR TEMPERATURE.    DP   - DEWPOINT TEMPERATURE.
      RH  - RELATIVE HUMIDITY.  PRES - PRESSURE.
      HX  - HEAT INDEX.         WCI  - WIND CHILL INDEX.
$




USA.gov is the U.S. government's official web portal to all federal, state and local government web resources and services.